Seward, AK

9:22 PM AKDT on May 25, 2017 (GMT -0800)
Seward

Weather History for PAWD - February, 2013

Change the Weather History Date:

Monday, February 11, 2013

  Actual Average Record
Temperature  
Mean Temperature 26 °F -  
Max Temperature 33 °F 32 °F 51 °F (1980)
Min Temperature 19 °F 23 °F 0 °F (1950)
Degree Days  
Heating Degree Days 39    
Moisture  
Dew Point 25 °F    
Average Humidity 83    
Maximum Humidity 100    
Minimum Humidity 56    
Precipitation  
Precipitation 0.00 in - - ()
Sea Level Pressure  
Sea Level Pressure 29.60 in    
Wind  
Wind Speed 4 mph (North)    
Max Wind Speed 18 mph    
Max Gust Speed 25 mph    
Visibility 6 miles    
Events Snow    
Averages and records for this station are not official NWS values.
T = Trace of Precipitation, MM = Missing Value Source: NWS Daily Summary

Daily Weather History Graph

Daily Weather History Graph

Search for Another Location

Airport or City:

Trip Planner

Search our weather history database for the weather conditions in past years. The results will help you decide how hot, cold, wet, or windy it might be!

Date:

Astronomy

Feb. 11, 2013 Rise Set
Actual Time 8:45 AM AKST 5:39 PM AKST
Civil Twilight 8:00 AM AKST 6:24 PM AKST
Nautical Twilight 7:11 AM AKST 7:13 PM AKST
Astronomical Twilight 6:23 AM AKST 8:01 PM AKST
Moon 8:35 AM AKST (2/11) 8:35 PM AKST (2/11)
Length of Visible Light 10h 23m
Length of Day
8h 53m
Waxing Crescent, 3% of the Moon is Illuminated
Feb 11
Waxing Crescent
Feb 17
First Quarter
Feb 25
Full
Mar 4
Last Quarter
Mar 11
New

Hourly Weather History & Observations

Time (AKST) Temp. Windchill Dew Point Humidity Pressure Visibility Wind Dir Wind Speed Gust Speed Precip Events Conditions
12:17 AM 33.8 °F - 33.8 °F 100% 29.48 in 0.8 mi Calm Calm - 0.00 in Snow Light Snow
12:53 AM 33.1 °F - 32.0 °F 96% 29.49 in 1.0 mi Calm Calm - 0.00 in Snow Light Snow
1:26 AM 33.8 °F - 32.0 °F 93% 29.49 in 1.5 mi Calm Calm - 0.00 in Snow Light Snow
1:41 AM 33.8 °F - 32.0 °F 93% 29.49 in 1.5 mi Calm Calm - 0.00 in Snow Light Snow
1:53 AM 33.1 °F - 32.0 °F 96% 29.49 in 1.5 mi Calm Calm - 0.00 in Snow Light Snow
2:25 AM 33.8 °F - 32.0 °F 93% 29.49 in 1.8 mi Calm Calm - 0.00 in Snow Light Snow
2:42 AM 33.8 °F - 32.0 °F 93% 29.50 in 2.0 mi Calm Calm - 0.00 in Snow Light Snow
3:03 AM 33.8 °F - 32.0 °F 93% 29.50 in 1.8 mi Calm Calm - 0.00 in Snow Light Snow
3:28 AM 33.8 °F - 32.0 °F 93% 29.50 in 1.2 mi Calm Calm - 0.00 in Snow Light Snow
3:36 AM 33.8 °F - 32.0 °F 93% 29.50 in 1.2 mi Calm Calm - 0.00 in Snow Light Snow
3:53 AM 33.1 °F - 32.0 °F 96% 29.50 in 1.0 mi Calm Calm - 0.00 in Snow Light Snow
4:16 AM 33.8 °F - 32.0 °F 93% 29.51 in 2.0 mi Calm Calm - 0.00 in Snow Light Snow
4:30 AM 32.0 °F - 32.0 °F 100% 29.50 in 2.0 mi Calm Calm - 0.00 in Snow Light Snow
4:46 AM 32.0 °F 24.2 °F 32.0 °F 100% 29.50 in 6.0 mi North 9.2 mph - 0.00 in Snow Light Snow
4:51 AM 30.2 °F 18.5 °F 26.6 °F 86% 29.50 in 9.0 mi North 17.3 mph 21.9 mph 0.00 in   Overcast
4:53 AM 30.9 °F 19.4 °F 26.1 °F 82% 29.50 in 9.0 mi North 17.3 mph 23.0 mph 0.00 in   Overcast
5:53 AM 30.9 °F 20.7 °F 25.0 °F 79% 29.52 in 10.0 mi NNE 13.8 mph 23.0 mph N/A   Overcast
7:53 AM 28.9 °F 16.9 °F 21.9 °F 75% 29.54 in 10.0 mi NNE 17.3 mph 25.3 mph 0.00 in   Overcast
8:53 AM 28.9 °F 16.5 °F 21.0 °F 72% 29.57 in 10.0 mi North 18.4 mph 25.3 mph N/A   Overcast
9:53 AM 28.9 °F 17.3 °F 21.9 °F 75% 29.60 in 10.0 mi North 16.1 mph 24.2 mph N/A   Overcast
10:53 AM 28.9 °F 16.9 °F 21.0 °F 72% 29.62 in 10.0 mi North 17.3 mph 23.0 mph N/A   Mostly Cloudy
11:53 AM 30.0 °F 18.3 °F 19.0 °F 64% 29.65 in 10.0 mi North 17.3 mph - N/A   Clear
12:53 PM 30.0 °F 18.3 °F 17.1 °F 59% 29.67 in 10.0 mi North 17.3 mph 24.2 mph N/A   Clear
1:53 PM 30.0 °F 19.5 °F 16.0 °F 56% 29.68 in 10.0 mi North 13.8 mph - N/A   Clear
2:53 PM 30.0 °F 20.5 °F 17.1 °F 59% 29.70 in 10.0 mi North 11.5 mph - N/A   Clear
3:53 PM 28.9 °F 19.2 °F 18.0 °F 64% 29.71 in 10.0 mi North 11.5 mph - N/A   Clear
4:53 PM 28.9 °F 20.4 °F 18.0 °F 64% 29.73 in 10.0 mi North 9.2 mph - N/A   Clear
5:53 PM 27.0 °F 20.5 °F 17.1 °F 66% 29.75 in 10.0 mi NNW 5.8 mph - N/A   Clear
6:53 PM 23.0 °F 15.8 °F 18.0 °F 81% 29.75 in 10.0 mi North 5.8 mph - N/A   Clear
7:53 PM 21.9 °F 15.7 °F 18.0 °F 85% 29.76 in 10.0 mi North 4.6 mph - N/A   Clear
8:53 PM 19.9 °F - 17.1 °F 89% 29.78 in 10.0 mi Calm Calm - N/A   Scattered Clouds
9:53 PM 24.1 °F 17.0 °F 19.0 °F 81% 29.76 in 10.0 mi NNW 5.8 mph - N/A   Overcast
10:53 PM 21.9 °F - 18.0 °F 85% 29.77 in 10.0 mi Calm Calm - N/A   Overcast
11:53 PM 24.1 °F - 19.9 °F 84% 29.78 in 9.0 mi Calm Calm - 0.00 in   Overcast